Starlink 32356

operational
NORAD ID: 60921 Int'l Des: 2024-154 Owner: SPXS Country: US Constellation: starlink
LEOCIRCULAR

关于 Starlink 32356

正在加载描述...

实时位置

正在加载3D地球...

即将过境

高度历史

Altitude vs Time

uPlot chart will show altitude changes over time

两行轨道根数

1 60921U 24154U 25258.62827018 .00001283 00000-0 55437-4 0 9992
2 60921 53.1613 16.8861 0000971 84.5636 275.5476 15.30193885 59540
Epoch: Sep 15, 2025 • Age: 15 hours

当前状态

高度 494.3 km
速度 7.62 km/s
星下点 -52.89°S, 176.59°W
发射日期 Aug 31, 2024
运行时间 1 years
类型 internet

技术详情

分类 Payload
质量 730.00 kg
干质量 700.00 kg
总质量 730.00 kg
长度 0.30 m
直径 4.10 m
跨度 29.00 m
形状 Box + pan
制造商 SPXS
平台类型 Starlink V2M
阶段状态 In Orbit
所有者/国家 SPXS/US

大型星座

Loading constellations...